Regional Weather Roundup
Issued by NWS

Home | Current Version | Previous Version | Graphics & Text | Print | Product List | Glossary On
Versions: 1 2 3 4 5 6 7 8 9 10 11 12 13 14 15 16 17 18 19 20 21 22 23 24 25 26 27 28 29 30 31 32 33 34 35 36 37 38 39 40 41 42 43 44 45 46 47 48 49 50
000
ASUS45 KTFX 272119
RWRMT
MONTANA HOURLY WEATHER ROUNDUP
NATIONAL WEATHER SERVICE GREAT FALLS MT
219 PM MST TUE JAN 27 2015

NOTE: "FAIR" INDICATES FEW OR NO CLOUDS BELOW 12000 FEET WITH NO
SIGNIFICANT WEATHER AND/OR OBSTRUCTIONS TO VISIBILITY.

* THESE STATIONS ARE NOT UNDER NWS QUALITY CONTROL. THEY DO NOT
   REPORT WEATHER SUCH AS PRECIPITATION OR FOG.

MTZ001>007-043-272200-
WEST OF THE DIVIDE
CITY           SKY/WX    TMP DP  RH WIND       PRES   REMARKS
KALISPELL      PTSUNNY   34  28  79 CALM      29.95F
MISSOULA       PTSUNNY   34  30  85 CALM      30.01F
BUTTE          PTSUNNY   46  28  50 NW6       29.99F
MULLAN PASS    PTSUNNY   45  27  49 VRB5      29.99F
* ANACONDA     PTSUNNY   50  30  46 N6         N/A
* ESSEX        N/A       47  30  52 SE2        N/A
* EUREKA APT   PTCLDY    43  32  65 CALM      29.92F
* HAMILTON APT CLOUDY    43  30  60 N3        29.98F
* LIBBY APT    PTCLDY    32  30  92 CALM      29.97F VSB 1/2
* LINCOLN      N/A       45  28  51 S4         N/A
* LOOKOUT PASS N/A       49  29  46 NW4        N/A
* POLSON       N/A       45  32  60 S1         N/A
* RONAN APT    PTSUNNY   34  34 100 N/A        N/A
* SEELEY LAKE  N/A       43  28  56 SE1        N/A
* THOMP F APT  CLOUDY    46  27  48 SW6G14     N/A
$$

MTZ008-052>055-272200-
SOUTHWEST MONTANA
CITY           SKY/WX    TMP DP  RH WIND       PRES   REMARKS
BOZEMAN        PTSUNNY   41  34  76 SE5       29.98F
DILLON         PTSUNNY   52  28  40 SW10      29.99F
* W YELLOWSTON PTSUNNY   34  30  85 NE2        N/A
* THREE FORKS  PTSUNNY   46  46 100 N/A        N/A
* BOULDER HILL N/A       49  24  38 S12        N/A
* MONIDA PASS  N/A       39  28  65 SE21G28    N/A   WCI  29
* RAYNOLDS PAS N/A       39  23  53 SE18G26    N/A   WCI  30
* WHITEHALL    N/A       57  29  34 SW6        N/A
* WISE RIVER   N/A       38  27  65 W7         N/A   WCI  33
$$

MTZ009>010-012-014-046-048-049-054-272200-
EAST SLOPES AND CENTRAL MONTANA
CITY           SKY/WX    TMP DP  RH WIND       PRES   REMARKS
CUT BANK       CLOUDY   N/A N/A N/A N/A       29.83F
GREAT FALLS    PTCLDY    63  27  26 SW16      29.86F
HELENA         PTCLDY    45  34  65 E3        29.96F
MALMSTROM AFB  PTCLDY    64  27  25 W15G22    29.85F
* CONRAD       CLOUDY    57  28  33 S5         N/A
* DEARBORN     N/A       62  26  25 S17        N/A
* EAST GLACIER N/A       54  17  23 W16G21     N/A
* MONARCH      N/A       58  17  20 W11        N/A
* PENDROY      N/A       54  25  33 E2G8       N/A
* ROGERS PASS  N/A       51  22  32 SE9G17     N/A
* SWEET GRASS  N/A       53  25  34 W18G24     N/A
* WHITE SULPH  N/A       49  30  48 NW2        N/A
$$

MTZ011-013-016-021-035-040-045-047-050-051-272200-
NORTH CENTRAL MONTANA
CITY           SKY/WX    TMP DP  RH WIND       PRES   REMARKS
HAVRE          PTSUNNY   59  34  39 SW15      29.79F
LEWISTOWN      CLOUDY    57  30  36 W9        29.87F
* N BAR RANCH  SUNNY     59  30  33 SE6       29.89F
* CHINOOK      CLOUDY    50  37  61 NE6       29.80F
* CHESTER      N/A       48  34  59 NE1        N/A
* DENTON       N/A       64  31  29 SW1        N/A
* GEYSER       N/A       63  22  21 W23G29     N/A
* JUDITH GAP   N/A       57  30  36 S4         N/A
* LOMA         N/A       64  34  33 SW13G19    N/A
$$

MTZ017>020-022>027-061-062-272200-
NORTHEAST MONTANA
CITY           SKY/WX    TMP DP  RH WIND       PRES   REMARKS
GLASGOW        CLOUDY    52  36  55 CALM      29.80F
GLENDIVE       PTCLDY    54  37  53 SE5       29.84F
JORDAN         CLOUDY    55  36  49 W3        29.82F
SIDNEY         PTSUNNY   54  39  57 S8        29.83F
WOLF POINT     CLOUDY    50  39  66 SW9       29.80F
* BEAVER HILL  N/A       52  35  52 SW1G8      N/A
* CIRCLE       N/A       57  41  55 S3         N/A
* LINDSAY DVD  N/A       61  30  31 SW6        N/A
* NAVAJO       N/A       48  36  63 W17        N/A
* PLENTYWOOD A CLOUDY    52  36  55 W7        29.77F
* POPLAR APT   CLOUDY    46  36  68 N/A       29.80F
* SACO         N/A       51  37  59 NW1        N/A
* SCOBEY APT   CLOUDY    48  34  59 SW7        N/A
$$

MTZ028>042-056>058-272200-
SOUTHCENTRAL AND SOUTHEAST MONTANA
CITY           SKY/WX    TMP DP  RH WIND       PRES   REMARKS
BAKER          PTCLDY    61  36  39 W9        29.85F
BILLINGS       PTSUNNY   66  30  26 SW13      29.88F
LIVINGSTON     PTSUNNY   63  25  24 SW28G36   29.92F
MILES CITY     PTCLDY    57  36  46 S6        29.84F
* BIG TIMBER A PTSUNNY   61  27  27 W13       29.92F
* FORSYTH APT  PTCLDY    66  30  26 W3        29.84F
* LAUREL APT   PTSUNNY   64  28  26 S7         N/A
* ROUNDUP APT  CLOUDY    63  27  26 S9         N/A
* ALZADA       N/A       68  35  30 SW4        N/A
* HYSHAM       N/A       61  27  27 W9G14      N/A
* REED POINT   N/A       50  31  48 SE2        N/A
* ROSCOE HILL  N/A       61  14  16 S10G26     N/A
$$

REGIONAL REPORTS...DAKOTAS
CITY           SKY/WX    TMP DP  RH WIND       PRES   REMARKS
WILLISTON      PTSUNNY   52  36  55 SW5       29.79F
DICKINSON      PTCLDY    59  37  44 W8        29.80F
BEACH          SUNNY     50  36  59 SW13      29.83F
CROSBY         SUNNY     45  39  80 SW6       29.78F
TIOGA          SUNNY     46  41  83 W7        29.81F
WATFORD CITY   SUNNY     50  39  66 SW10      29.78F
BISMARCK       PTCLDY    52  32  47 SW5       29.83F
GRAND FORKS    FOG       30  28  92 S14       29.96F WCI  19
FARGO          CLOUDY    32  28  85 SE17G29   29.99F WCI  21
BUFFALO SD     SUNNY     66  32  28 W14       29.80F
RAPID CITY     SUNNY     72  25  17 SE7       29.88F
$$

REGIONAL REPORTS...WYOMING/IDAHO/WASHINGTON
CITY           SKY/WX    TMP DP  RH WIND       PRES   REMARKS
GILLETTE       SUNNY     63  32  31 SW16      29.90F
SHERIDAN       SUNNY     57  30  36 NW6       29.88F
CODY           PTSUNNY   48  34  59 NE6       29.96F
YELLOWSTONE LA PTCLDY    30  18  61 CALM      30.16F
SALMON         CLOUDY   N/A N/A N/A CALM      30.10F
MULLAN PASS    PTSUNNY   45  27  49 VRB5      29.99S
SAND POINT     FOG      N/A N/A N/A CALM      30.00F VSB M1/4
SPOKANE        FOG       34  34 100 CALM      29.98F VSB M1/4
$$

REGIONAL REPORTS...ALBERTA
CITY           SKY/WX    TMP DP  RH WIND       PRES   REMARKS
CALGARY        PTSUNNY   57  28  33 SW3       29.73F
LETHBRIDGE     PTSUNNY   59  25  27 SW23G29   29.75F
MEDICINE HAT   CLOUDY    48  36  63 SW9       29.76F
EDMONTON       FOG       32  30  92 W6        29.79S VSB 3    WCI  26
WATERTON GATE  N/A       59  18  20 SW14G21    N/A
CARDSTON       N/A       61  21  21 W10        N/A
MILK RIVER     N/A       54  30  40 SW14       N/A
$$

REGIONAL REPORTS...SASKATCHEWAN
CITY           SKY/WX    TMP DP  RH WIND       PRES   REMARKS
SWIFT CURRENT  PTSUNNY   41  36  82 W3        29.75F
MOOSE JAW      PTSUNNY   36  32  85 NW7       29.80S WCI  30
REGINA         PTSUNNY   34  30  85 SW6       29.80R WCI  29
VAL MARIE      N/A       50  36  59 SW3        N/A
ASSINIBOIA     N/A       41  34  76 W7         N/A
CORONACH       N/A       46  36  68 W9         N/A

$$




USA.gov is the U.S. government's official web portal to all federal, state and local government web resources and services.